NOAA 16 DEB, 41069

Orbit data source: Space-Track

NOAA 16 DEB, 41069 is space debris in SSO originally from a launch on Thu, 21 Sep 2000 UTC launched from the Air Force Western Test Range (AFWTR). Debris objects in space refer to the collection of defunct objects orbiting the Earth. Examples of debris include non-operational satellites, rocket bodies, and fragments generated from explosions, collisions, or faulty payload assembly.

Loading next visibility...
NOAA 16 DEB details
Identifier
41069, 2000-055AC
Orbit
SSO
Last TLE update14 hours ago
Origin
Flag of USNOAA (US)
ManufacturerUnknown
MissionSpacecraft
Bus & MotorUnknown
MassUnknown
Launch date (UTC)
2000-09-21 (24 years ago)
Launch vehicleUnknown
Launch site
Air Force Western Test Range (AFWTR)
Object type
Payload
Rocket body
Debris
Shape & HBRUnknown
Radar Cross SectionSmall (<0.1 m²)

Expand to show TLE details & history

TLE from 14 hours ago
0 NOAA 16 DEB
1 41069U 00055AC  25025.22417936  .00006100  00000-0  18140-2 0  9991
2 41069  98.5791 130.0449 0112837 259.9371  98.9070 14.39895332479437
Epoch: 2025-01-25T05:22Z
Definitive object data (Epoch: 2025-01-25T05:22:49.096Z)
Latitude-0.00008°
Longitude-75.43572°
Altitude775.146 km
Speed7.459 km/s
True Right ascension08h 40m 10s
True Declination0° 00' 00"
Sunlit
Object was in full shadow at TLE epoch
Visualization TLE readout
Latitude-37.65241°
Longitude98.51532°
Altitude711.287 km
Speed7.531 km/s
Apparent Right ascension16h 49m 57s
Apparent Declination-80° 54' 51"
Sunlit
Object is in daylight
Visualization observer readout
Local Sidereal Time21:05:26
Azimuth190.025° SSW
Elevation-35.47°
Doppler factor1
Orbital elements
Apogee altitude836.469 km
Perigee altitude675.47 km
Semi-major axis7,134.107 km
Eccentricity0.0112837
Inclination98.5791°
RAAN130.0449°
Arg. of periapsis259.9371°
True anomaly100.18154°
Mean anomaly98.907°
Eccentric anomaly99.54456°
Mean motion3.60192 °/min
BSTAR0.001814
Orbital period99.95 mins
Loading maneuver chart data...
Loading historical data...
Loading historical data...
Loading historical data...
Loading historical data...
Loading historical data...
Loading historical data...
Loading historical data...

NOAA 16 DEB Visibility forecast

Observer location: undefined°, undefined

Span
Click to sort rows by Start time (UTC) header in descending order
Start Az.
Max El. time (UTC)
Max El. Az.
Max El.
End time (UTC)
End Az.
6 mins2025-01-25 20:58:27.031Z336.52° NNW2025-01-25 21:01:27.031Z296.956° NW19.68°2025-01-25 21:04:27.031Z256.444° W
9 mins2025-01-26 06:31:27.031Z149.807° SSE2025-01-26 06:35:27.031Z69.263° E41.794°2025-01-26 06:40:27.031Z353.741° N
4 mins2025-01-26 08:13:27.031Z253.744° W2025-01-26 08:14:27.031Z266.717° W15.359°2025-01-26 08:17:27.031Z302.487° NW
6 mins2025-01-26 18:41:27.031Z54.804° ENE2025-01-26 18:44:27.031Z97.474° ESE20.009°2025-01-26 18:47:27.031Z137.297° SSE
|